Jonesboro, AR

6:49 AM CDT on October 17, 2017 (GMT -0500)
Jonesboro Municipal

Weather History for KJBR - July, 2013

Change the Weather History Date:

Tuesday, July 30, 2013

  Actual Average Record
Temperature  
Mean Temperature 77 °F 81 °F  
Max Temperature 82 °F 91 °F 104 °F (2012)
Min Temperature 71 °F 71 °F 58 °F (1897)
Degree Days  
Heating Degree Days 0 0  
Month to date heating degree days 0 0  
Since 1 June heating degree days 0 1  
Since 1 July heating degree days 0 0  
Cooling Degree Days 12 16  
Month to date cooling degree days 436 479  
Year to date cooling degree days 1115 1075  
Since 1 June cooling degree days 885 862  
Growing Degree Days 26 (Base 50)    
Moisture  
Dew Point 72 °F    
Average Humidity 87    
Maximum Humidity 94    
Minimum Humidity 79    
Precipitation  
Precipitation 0.73 in 0.08 in 3.51 in (1952)
Month to date precipitation 3.27 3.47  
Year to date precipitation 33.61 28.50  
Snow  
Snow 0.00 in - - ()
Month to date snowfall 0.0  
Since 1 June snowfall 0.0  
Snow Depth 0.00 in    
Sea Level Pressure  
Sea Level Pressure 30.07 in    
Wind  
Wind Speed 5 mph (SSE)    
Max Wind Speed 13 mph    
Max Gust Speed 21 mph    
Visibility 8 miles    
Events Rain , Thunderstorm    
T = Trace of Precipitation, MM = Missing Value Source: NWS Daily Summary

Daily Weather History Graph

Daily Weather History Graph

Search for Another Location

Airport or City:

Trip Planner

Search our weather history database for the weather conditions in past years. The results will help you decide how hot, cold, wet, or windy it might be!

Date:

Astronomy

Jul. 30, 2013 Rise Set
Actual Time 6:08 AM CDT 8:08 PM CDT
Civil Twilight 5:40 AM CDT 8:36 PM CDT
Nautical Twilight 5:06 AM CDT 9:11 PM CDT
Astronomical Twilight 4:29 AM CDT 9:47 PM CDT
Moon 12:25 AM CDT (7/30) 2:29 PM CDT (7/30)
Length of Visible Light 14h 56m
Length of Day
13h 59m
Last Quarter, 41% of the Moon is Illuminated
Jul 30
Last Quarter
Aug 6
New
Aug 14
First Quarter
Aug 20
Full
Aug 28
Last Quarter

Hourly Weather History & Observations

Time (CDT) Temp. Heat Index Dew Point Humidity Pressure Visibility Wind Dir Wind Speed Gust Speed Precip Events Conditions
12:53 AM 72.0 °F - 68.0 °F 87% 30.09 in 10.0 mi ENE 6.9 mph - N/A   Partly Cloudy
1:53 AM 72.0 °F - 68.0 °F 87% 30.09 in 10.0 mi ENE 4.6 mph - N/A   Scattered Clouds
2:53 AM 71.1 °F - 68.0 °F 90% 30.07 in 10.0 mi ENE 4.6 mph - N/A   Partly Cloudy
3:53 AM 72.0 °F - 68.0 °F 87% 30.07 in 10.0 mi ENE 3.5 mph - N/A   Clear
4:53 AM 72.0 °F - 68.0 °F 87% 30.07 in 10.0 mi ENE 4.6 mph - N/A   Mostly Cloudy
5:53 AM 72.0 °F - 68.0 °F 87% 30.07 in 10.0 mi East 4.6 mph - N/A   Mostly Cloudy
6:53 AM 73.9 °F - 69.1 °F 85% 30.07 in 9.0 mi SSE 5.8 mph - 0.02 in Rain Light Rain
7:40 AM 73.4 °F - 69.8 °F 88% 30.12 in 5.0 mi West 9.2 mph - 0.04 in Rain , Thunderstorm Rain
7:53 AM 73.9 °F - 71.1 °F 91% 30.11 in 5.0 mi NW 6.9 mph - 0.06 in Rain , Thunderstorm Rain
8:00 AM 73.4 °F - 71.6 °F 94% 30.13 in 2.5 mi West 5.8 mph - 0.04 in Rain , Thunderstorm Heavy Thunderstorms and Rain
8:10 AM 73.4 °F - 71.6 °F 94% 30.13 in 1.2 mi SW 9.2 mph - 0.13 in Rain , Thunderstorm Heavy Thunderstorms and Rain
8:33 AM 73.4 °F - 71.6 °F 94% 30.13 in 1.0 mi SW 9.2 mph - 0.33 in Rain , Thunderstorm Heavy Rain
8:41 AM 73.4 °F - 69.8 °F 88% 30.12 in 1.2 mi SSW 9.2 mph - 0.39 in Rain , Thunderstorm Rain
8:48 AM 71.6 °F - 69.8 °F 94% 30.12 in 1.8 mi South 8.1 mph - 0.43 in Rain , Thunderstorm Rain
8:53 AM 73.0 °F - 71.1 °F 93% 30.12 in 3.0 mi SSE 6.9 mph - 0.44 in Rain , Thunderstorm Rain
9:02 AM 73.4 °F - 71.6 °F 94% 30.12 in 4.0 mi SE 4.6 mph - 0.02 in Rain Light Rain
9:53 AM 73.9 °F - 72.0 °F 93% 30.11 in 2.0 mi South 4.6 mph - 0.15 in Rain Heavy Rain
10:08 AM 73.4 °F - 71.6 °F 94% 30.10 in 5.0 mi SE 6.9 mph - 0.03 in Rain Light Rain
10:53 AM 75.0 °F - 73.0 °F 94% 30.09 in 10.0 mi ESE 8.1 mph - 0.05 in Rain Light Rain
11:06 AM 75.2 °F - 73.4 °F 94% 30.09 in 10.0 mi SE 6.9 mph - 0.00 in Rain Light Rain
11:53 AM 75.9 °F - 73.0 °F 91% 30.09 in 9.0 mi SSE 6.9 mph - 0.01 in Rain Light Rain
12:37 PM 78.8 °F - 73.4 °F 83% 30.07 in 10.0 mi SSE 11.5 mph - 0.00 in   Mostly Cloudy
12:45 PM 77.0 °F - 73.4 °F 89% 30.07 in 10.0 mi SSE 12.7 mph - 0.00 in   Mostly Cloudy
12:53 PM 77.0 °F - 73.9 °F 90% 30.07 in 10.0 mi South 8.1 mph - 0.00 in   Overcast
1:14 PM 78.8 °F - 73.4 °F 83% 30.07 in 10.0 mi South 10.4 mph - N/A   Overcast
1:53 PM 79.0 °F - 75.0 °F 88% 30.05 in 10.0 mi SSE 8.1 mph - N/A   Overcast
2:46 PM 80.6 °F 86.2 °F 75.2 °F 84% 30.05 in 10.0 mi SSE 6.9 mph - N/A   Overcast
2:53 PM 81.0 °F 86.7 °F 75.0 °F 82% 30.04 in 10.0 mi SSE 6.9 mph - N/A   Overcast
3:20 PM 80.6 °F 86.2 °F 75.2 °F 84% 30.05 in 10.0 mi South 4.6 mph - N/A   Overcast
3:31 PM 80.6 °F 86.2 °F 75.2 °F 84% 30.06 in 10.0 mi SSW 6.9 mph - N/A   Overcast
3:53 PM 81.0 °F 86.7 °F 75.0 °F 82% 30.04 in 10.0 mi SSW 5.8 mph - 0.00 in Rain Light Rain
4:53 PM 80.1 °F 85.1 °F 75.0 °F 85% 30.03 in 10.0 mi South 9.2 mph - 0.00 in Rain Light Rain
5:53 PM 80.1 °F 84.5 °F 73.9 °F 81% 30.01 in 10.0 mi South 6.9 mph - 0.00 in   Partly Cloudy
6:53 PM 81.0 °F 85.8 °F 73.0 °F 77% 30.01 in 10.0 mi SSE 5.8 mph - N/A   Clear
7:53 PM 79.0 °F - 73.0 °F 82% 30.00 in 10.0 mi South 3.5 mph - N/A   Clear
8:53 PM 77.0 °F - 73.0 °F 88% 30.00 in 10.0 mi Calm Calm - N/A   Overcast
9:53 PM 77.0 °F - 73.9 °F 90% 30.02 in 10.0 mi Calm Calm - N/A   Overcast
10:53 PM 78.1 °F - 73.9 °F 87% 30.03 in 10.0 mi South 3.5 mph - N/A   Overcast
11:53 PM 78.1 °F - 73.9 °F 87% 30.02 in 10.0 mi Calm Calm - N/A   Scattered Clouds